Location: Houston
(29.7631°N, 95.3631°W)
Time: 18:10:31
(UTC-05:00)

Envisat - Visible Passes

Search period start: 25 March 2019 00:00
Search period end: 04 April 2019 00:00
Orbit: 764 x 766 km, 98.2° (Epoch: 25 March)

Date Brightness Start Highest point End Pass type
(mag) Time Alt. Az. Time Alt. Az. Time Alt. Az.
25 Mar 3.0 20:04:47 10° SSE 20:09:51 87° ENE 20:14:57 10° N visible
26 Mar 5.6 21:08:40 10° SW 21:12:17 20° W 21:15:54 10° NW visible
27 Mar 4.0 20:30:30 10° S 20:35:23 49° W 20:40:18 10° NNW visible
28 Mar 3.0 19:53:39 10° SSE 19:58:40 67° ENE 20:03:42 10° N visible
29 Mar 5.2 20:56:51 10° SSW 21:01:00 25° W 21:05:11 10° NW visible
30 Mar 3.5 20:19:09 10° S 20:24:10 65° W 20:29:13 10° NNW visible
31 Mar 5.9 21:24:21 10° WSW 21:26:41 13° W 21:29:03 10° WNW visible
01 Apr 4.8 20:45:12 10° SSW 20:49:44 33° W 20:54:18 10° NW visible
02 Apr 3.1 20:07:53 10° S 20:12:57 85° WSW 20:18:02 10° NNW visible
03 Apr 5.8 21:12:04 10° SW 21:15:24 18° W 21:18:44 10° NW visible
